Regional Weather Roundup
Issued by NWS Portland, ME

Home | Current Version | Previous Version | Text Only | Print | Product List | Glossary On
Versions: 1 2 3 4 5 6 7 8 9 10 11 12 13 14 15 16 17 18 19 20 21 22 23 24 25 26 27 28 29 30 31 32 33 34 35 36 37 38 39 40 41 42 43 44 45 46 47 48 49 50
000
ASUS41 KGYX 291010
RWRGYX
WEATHER ROUNDUP FOR MAINE AND NEW HAMPSHIRE
NATIONAL WEATHER SERVICE GRAY ME
600 AM EDT TUE JUL 29 2014

MEZ002-005-006-010-012-015-018-020-021-024-026-027-029-291100-
MAINE

CITY           SKY/WX    TMP DP  RH WIND       PRES   REMARKS
PORTLAND       MOCLDY    62  60  93 SW7       29.62R
SANFORD        CLEAR     61  54  77 W8        29.64R
BAR HARBOR     CLOUDY    63  63 100 S7        29.58R
WISCASSET      CLOUDY    64  62  93 CALM      29.61R
ROCKLAND       CLOUDY    64  63  94 W6        29.57R
FRYEBURG       CLEAR     59  56  89 VRB3      29.63R
LEWISTONAUBURN CLOUDY    61  55  82 W3        29.61R
AUGUSTA        MOCLDY    61  57  87 W8        29.59R
WATERVILLE     MOCLDY    61  57  88 CALM      29.55R
BANGOR         MOCLDY    64  62  93 S5        29.57R
GREENVILLE       N/A     57  54  89 VRB6      29.56R
MILLINOCKET    MOCLDY    65  62  90 CALM      29.54R
HOULTON        CLOUDY    66  62  87 S7        29.50R
PRESQUE ISLE   CLOUDY    64  61  88 S8        29.47R
FRENCHVILLE    CLOUDY    64  63  96 S9G22     29.44R
CARIBOU        LGT RAIN  66  64  93 S10       29.46R
$$

NHZ002-005-008-009-011-012-014-291100-
NEW HAMPSHIRE

CITY           SKY/WX    TMP DP  RH WIND       PRES   REMARKS
PORTSMOUTH     PTCLDY    62  57  85 W10       29.64R
ROCHESTER      CLEAR     61  57  87 VRB7      29.65R
NASHUA         CLEAR     60  57  89 CALM      29.71R
MANCHESTER     MOCLDY    62  56  80 W3        29.68R
CONCORD        MOCLDY    61  54  77 NW12      29.69R
LACONIA          N/A     61  54  77 W7        29.68R
PLYMOUTH       CLOUDY    59  54  82 W14       29.69R
BERLIN         CLOUDY    57  54  89 VRB5      29.67R
WHITEFIELD     CLOUDY    57  53  86 W6        29.70R
JAFFREY        CLEAR     57  52  83 VRB6      29.74R
LEBANON        CLOUDY    60  56  86 N3        29.72R
MT WASHINGTON  FOG       41  41 100 NW37        N/A  VSB 1/16
$$

VTZ005-007-008-291100-
VERMONT

CITY           SKY/WX    TMP DP  RH WIND       PRES   REMARKS
ST JOHNSBURY     N/A     58  51  78 MISG      29.69R
MONTPELIER     CLOUDY    55  53  93 NW7       29.76R
BURLINGTON     PTCLDY    57  52  83 NW8       29.74R
$$

MAZ007-012-024-CTZ003-RIZ002-NYZ038-NYZ072-291100-
SOUTHERN NEW ENGLAND AND NY

CITY           SKY/WX    TMP DP  RH WIND       PRES   REMARKS
WORCESTER      CLOUDY    59  56  89 N3        29.75R
NANTUCKET      CLEAR     66  63  90 SW10      29.72R
PROVIDENCE     PTCLDY    63  58  83 W7        29.73R
HARTFORD       MOCLDY    63  54  72 NW3       29.75R
ALBANY         MOCLDY    59  53  80 W10       29.78R
NEW YORK CITY  PTCLDY    65  54  67 NW8       29.79R
$$

ANZ081-ANZ082-ANZ150-NHZ014-MEZ023>029-291100-
COASTAL MARINE OBSERVATIONS

STATION/POSITION TIME  TEMP    WIND        PRES    WAVE
                       AIR SEA DIR/SP/G            HT/PER
                 (UTC) (F)     (DEG/KT/KT) (MB)    (FT/S)
MOUNT DESERT ROC 1000   59                 1002.2R
MATINICUS ROCK   1000          240/ 16/ 16 1001.7R
PORTLAND WX BUOY 1000   61 58  240/  6/  8 1002.8R   3/ 6
WELLS            1000   61 57  280/  5/  8 1002.4R
ISLE OF SHOALS   1000   62     270/ 14/ 15 1003.6R
JEFFREYS LEDGE   1000      63                N/A     4/ 8
CASHES LEDGE BUO 1000   66 65  250/ 19/ 21 1001.8R   5/ 6
$$

.............KEY..............
   WCI - WIND CHILL
   TC  - TEMPERATURE IN CELSIUS
   VSB - VISIBILITY IN MILES
   HX  - HEAT INDEX
   FAIR- INDICATES FEW OR NO CLOUDS BELOW 12,000 FT, WITH NO
         SIGNIFICANT WEATHER AND/OR OBSTRUCTIONS TO VISIBILITY.




USA.gov is the U.S. government's official web portal to all federal, state and local government web resources and services.